Find Starlink 33809

NORAD ID: 63508 Int'l Des: 2025-071 Owner: SPXS Country: US Constellation: starlink operational
LEOCIRCULAR

現在のビュー

3D地球を読み込み中...

Starlink 33809について

説明を読み込み中...

次回通過

Passes for default location (London). Set your location on the main map for personalized predictions.

高度履歴

Loading altitude history...

軌道要素

1 63508U 25071R 26144.99065263 .00014633 00000-0 50506-3 0 9990
2 63508 53.1603 145.3572 0001586 70.4312 289.6860 15.30208471 64398
Epoch: May 24, 2026 • Age: 14 hours

現在のステータス

高度 480.6 km
速度 7.63 km/s
衛星直下点 52.89°N, 125.63°E
打ち上げ日 Apr 7, 2025
運用期間 1.1 years
タイプ internet

技術仕様

分類 Payload
質量 575.00 kg
乾燥質量 530.00 kg
総質量 575.00 kg
長さ 0.30 m
直径 4.10 m
スパン 29.00 m
形状 Box + pan
製造者 SPXS
バスタイプ Starlink V2MO
フェーズステータス In Orbit
所有者/国 SPXS/US

Most Searched